TimeMDT,TemperatureF,Dew PointF,Humidity,Sea Level PressureIn,VisibilityMPH,Wind Direction,Wind SpeedMPH,Gust SpeedMPH,PrecipitationIn,Events,Conditions,WindDirDegrees,DateUTC
12:53 AM,71.1,34.0,26,29.77,10.0,WSW,9.2,-,N/A,,Clear,250,2013-07-21 06:53:00
1:53 AM,70.0,34.0,27,29.76,10.0,SW,11.5,-,N/A,,Clear,230,2013-07-21 07:53:00
2:53 AM,71.1,34.0,26,29.73,10.0,SW,10.4,-,N/A,,Clear,230,2013-07-21 08:53:00
3:53 AM,63.0,37.0,38,29.73,10.0,SE,3.5,-,N/A,,Clear,140,2013-07-21 09:53:00
4:53 AM,64.9,39.0,39,29.72,10.0,WSW,3.5,-,N/A,,Clear,250,2013-07-21 10:53:00
5:53 AM,62.1,35.1,37,29.72,10.0,West,4.6,-,N/A,,Clear,270,2013-07-21 11:53:00
6:53 AM,63.0,34.0,34,29.73,10.0,North,8.1,-,N/A,,Clear,350,2013-07-21 12:53:00
7:53 AM,66.0,37.9,36,29.75,10.0,NW,4.6,-,N/A,,Clear,320,2013-07-21 13:53:00
8:53 AM,73.0,39.9,30,29.76,10.0,NNW,5.8,-,N/A,,Clear,330,2013-07-21 14:53:00
9:53 AM,77.0,41.0,28,29.75,10.0,NNW,5.8,-,N/A,,Clear,340,2013-07-21 15:53:00
10:53 AM,82.9,39.9,22,29.74,10.0,NNW,8.1,-,N/A,,Clear,340,2013-07-21 16:53:00
11:53 AM,84.9,39.0,20,29.72,10.0,NNW,4.6,-,N/A,,Clear,340,2013-07-21 17:53:00
12:53 PM,90.0,37.0,15,29.69,10.0,Variable,4.6,-,N/A,,Clear,0,2013-07-21 18:53:00
1:53 PM,91.9,32.0,12,29.67,10.0,North,6.9,-,N/A,,Clear,10,2013-07-21 19:53:00
2:53 PM,93.9,28.9,10,29.65,10.0,NNE,8.1,-,N/A,,Clear,20,2013-07-21 20:53:00
3:53 PM,93.9,28.0,10,29.65,10.0,East,5.8,-,N/A,,Clear,100,2013-07-21 21:53:00
4:53 PM,93.9,25.0,8,29.64,10.0,North,6.9,-,N/A,,Clear,10,2013-07-21 22:53:00
5:53 PM,93.9,19.9,7,29.64,10.0,NW,12.7,-,N/A,,Clear,310,2013-07-21 23:53:00
6:53 PM,91.9,24.1,9,29.65,10.0,NW,8.1,-,N/A,,Clear,320,2013-07-22 00:53:00
7:53 PM,89.1,28.9,12,29.66,10.0,North,5.8,-,N/A,,Clear,350,2013-07-22 01:53:00
8:53 PM,82.0,25.0,12,29.69,10.0,West,8.1,-,N/A,,Clear,280,2013-07-22 02:53:00
9:53 PM,79.0,27.0,15,29.73,10.0,WNW,6.9,-,N/A,,Clear,290,2013-07-22 03:53:00
10:53 PM,75.0,26.1,16,29.76,10.0,WSW,9.2,-,N/A,,Clear,250,2013-07-22 04:53:00
11:53 PM,72.0,28.9,20,29.79,10.0,West,8.1,-,N/A,,Clear,270,2013-07-22 05:53:00